La Grande, OR

3:12 AM PDT on August 28, 2016 (GMT -0700)
La Grande-Union County

Weather History for KLGD - January, 2014

Change the Weather History Date:

Sunday, January 26, 2014

  Actual Average Record
Temperature  
Mean Temperature 26 °F -  
Max Temperature 35 °F 37 °F 55 °F (1992)
Min Temperature 17 °F 27 °F 7 °F (1989)
Degree Days  
Heating Degree Days 39    
Moisture  
Dew Point 16 °F    
Average Humidity 69    
Maximum Humidity 86    
Minimum Humidity 52    
Precipitation  
Precipitation 0.00 in - - ()
Sea Level Pressure  
Sea Level Pressure 30.20 in    
Wind  
Wind Speed 8 mph (SSW)    
Max Wind Speed 15 mph    
Max Gust Speed 17 mph    
Visibility 10 miles    
Events      
Averages and records for this station are not official NWS values.
T = Trace of Precipitation, MM = Missing Value Source: NWS Daily Summary

Daily Weather History Graph

Daily Weather History Graph

Search for Another Location

Airport or City:

Trip Planner

Search our weather history database for the weather conditions in past years. The results will help you decide how hot, cold, wet, or windy it might be!

Date:

Astronomy

Jan. 26, 2014 Rise Set
Actual Time 7:18 AM PST 4:50 PM PST
Civil Twilight 6:46 AM PST 5:22 PM PST
Nautical Twilight 6:11 AM PST 5:58 PM PST
Astronomical Twilight 5:36 AM PST 6:33 PM PST
Moon 3:02 AM PST (1/26) 12:42 PM PST (1/26)
Length of Visible Light 10h 35m
Length of Day
9h 31m
Waning Crescent, 23% of the Moon is Illuminated
Jan 26
Waning Crescent
Jan 30
New
Feb 6
First Quarter
Feb 14
Full
Feb 22
Last Quarter

Hourly Weather History & Observations

Time (PST) Temp. Windchill Dew Point Humidity Pressure Visibility Wind Dir Wind Speed Gust Speed Precip Events Conditions
12:15 AM 23.0 °F 11.7 °F 15.8 °F 74% 30.30 in 10.0 mi WSW 11.5 mph 17.3 mph N/A   Clear
12:35 AM 21.2 °F 10.1 °F 14.0 °F 74% 30.29 in 10.0 mi SSW 10.4 mph - N/A   Clear
12:55 AM 23.0 °F 12.4 °F 15.8 °F 74% 30.29 in 10.0 mi WSW 10.4 mph 17.3 mph N/A   Clear
1:15 AM 21.2 °F 11.7 °F 15.8 °F 80% 30.28 in 10.0 mi SW 8.1 mph - N/A   Clear
1:35 AM 21.2 °F 10.1 °F 15.8 °F 80% 30.28 in 10.0 mi SW 10.4 mph - N/A   Clear
1:55 AM 21.2 °F 10.1 °F 15.8 °F 80% 30.28 in 10.0 mi SW 10.4 mph - N/A   Clear
2:15 AM 21.2 °F 9.5 °F 14.0 °F 74% 30.28 in 10.0 mi SSW 11.5 mph - N/A   Clear
2:35 AM 21.2 °F 12.6 °F 15.8 °F 80% 30.27 in 10.0 mi SW 6.9 mph - N/A   Clear
2:55 AM 21.2 °F 10.9 °F 15.8 °F 80% 30.27 in 10.0 mi SSW 9.2 mph - N/A   Clear
3:15 AM 21.2 °F 14.9 °F 15.8 °F 80% 30.27 in 10.0 mi South 4.6 mph - N/A   Clear
3:35 AM 21.2 °F 7.8 °F 14.0 °F 74% 30.27 in 10.0 mi WSW 15.0 mph - N/A   Clear
3:55 AM 21.2 °F 9.5 °F 15.8 °F 80% 30.27 in 10.0 mi WSW 11.5 mph - N/A   Clear
4:15 AM 21.2 °F 10.9 °F 12.2 °F 68% 30.27 in 10.0 mi WNW 9.2 mph - N/A   Clear
4:35 AM 19.4 °F 10.4 °F 12.2 °F 74% 30.27 in 10.0 mi West 6.9 mph - N/A   Clear
4:55 AM 19.4 °F 9.5 °F 14.0 °F 80% 30.27 in 10.0 mi West 8.1 mph - N/A   Clear
5:15 AM 19.4 °F 11.5 °F 15.8 °F 86% 30.26 in 10.0 mi South 5.8 mph - N/A   Clear
5:35 AM 21.2 °F 12.6 °F 15.8 °F 80% 30.26 in 10.0 mi SW 6.9 mph - N/A   Clear
5:55 AM 19.4 °F 9.5 °F 10.4 °F 68% 30.26 in 10.0 mi SSW 8.1 mph - N/A   Clear
6:15 AM 21.2 °F 10.9 °F 15.8 °F 80% 30.26 in 10.0 mi SSW 9.2 mph - N/A   Clear
6:35 AM 17.6 °F 10.7 °F 10.4 °F 73% 30.26 in 10.0 mi SW 4.6 mph - N/A   Clear
6:55 AM 17.6 °F 5.0 °F 10.4 °F 73% 30.25 in 10.0 mi SW 11.5 mph - N/A   Clear
7:15 AM 21.2 °F 10.1 °F 15.8 °F 80% 30.25 in 10.0 mi WSW 10.4 mph - N/A   Clear
7:35 AM 19.4 °F 8.6 °F 12.2 °F 74% 30.26 in 10.0 mi SW 9.2 mph - N/A   Clear
7:55 AM 21.2 °F 10.1 °F 14.0 °F 74% 30.25 in 10.0 mi West 10.4 mph 17.3 mph N/A   Clear
8:15 AM 23.0 °F 11.7 °F 15.8 °F 74% 30.26 in 10.0 mi WSW 11.5 mph - N/A   Clear
8:35 AM 23.0 °F 13.1 °F 15.8 °F 74% 30.26 in 10.0 mi WSW 9.2 mph - N/A   Clear
8:55 AM 24.8 °F 16.1 °F 15.8 °F 69% 30.26 in 10.0 mi West 8.1 mph - N/A   Clear
9:15 AM 24.8 °F 16.1 °F 17.6 °F 74% 30.25 in 10.0 mi SSW 8.1 mph - N/A   Clear
9:35 AM 26.6 °F 22.6 °F 17.6 °F 69% 30.25 in 10.0 mi South 3.5 mph - N/A   Clear
9:55 AM 26.6 °F 22.6 °F 17.6 °F 69% 30.26 in 10.0 mi SSE 3.5 mph - N/A   Clear
10:15 AM 26.6 °F - 17.6 °F 69% 30.26 in 10.0 mi Calm Calm - N/A   Clear
10:35 AM 28.4 °F - 19.4 °F 69% 30.25 in 10.0 mi Calm Calm - N/A   Clear
10:55 AM 28.4 °F 24.6 °F 17.6 °F 64% 30.25 in 10.0 mi WNW 3.5 mph - N/A   Clear
11:15 AM 28.4 °F - 17.6 °F 64% 30.24 in 10.0 mi Calm Calm - N/A   Clear
11:35 AM 30.2 °F 26.7 °F 19.4 °F 64% 30.23 in 10.0 mi SSW 3.5 mph - N/A   Clear
11:55 AM 32.0 °F - 19.4 °F 60% 30.21 in 10.0 mi Calm Calm - N/A   Clear
12:15 PM 33.8 °F - 21.2 °F 60% 30.20 in 10.0 mi Calm Calm - N/A   Clear
12:35 PM 32.0 °F 27.5 °F 17.6 °F 55% 30.19 in 10.0 mi SE 4.6 mph - N/A   Clear
12:55 PM 33.8 °F 29.6 °F 19.4 °F 56% 30.19 in 10.0 mi South 4.6 mph - N/A   Clear
1:15 PM 35.6 °F 28.6 °F 19.4 °F 52% 30.18 in 10.0 mi SW 9.2 mph - N/A   Clear
1:35 PM 33.8 °F 26.4 °F 17.6 °F 52% 30.18 in 10.0 mi SSW 9.2 mph - N/A   Clear
1:55 PM 33.8 °F 25.8 °F 17.6 °F 52% 30.17 in 10.0 mi SSW 10.4 mph - N/A   Clear
2:15 PM 33.8 °F 25.8 °F 19.4 °F 56% 30.16 in 10.0 mi SSW 10.4 mph - N/A   Clear
2:35 PM 33.8 °F 25.8 °F 19.4 °F 56% 30.16 in 10.0 mi SSW 10.4 mph - N/A   Clear
2:55 PM 33.8 °F 26.4 °F 17.6 °F 52% 30.16 in 10.0 mi SSW 9.2 mph - N/A   Clear
3:15 PM 33.8 °F 27.0 °F 17.6 °F 52% 30.15 in 10.0 mi SSW 8.1 mph - N/A   Clear
3:35 PM 33.8 °F 27.0 °F 17.6 °F 52% 30.14 in 10.0 mi SSW 8.1 mph - N/A   Clear
3:55 PM 32.0 °F 24.2 °F 17.6 °F 55% 30.14 in 10.0 mi SSW 9.2 mph - N/A   Clear
4:15 PM 30.2 °F 21.3 °F 15.8 °F 55% 30.14 in 10.0 mi SSW 10.4 mph - N/A   Clear
4:35 PM 28.4 °F 19.7 °F 15.8 °F 59% 30.13 in 10.0 mi South 9.2 mph - N/A   Clear
4:55 PM 26.6 °F 17.5 °F 15.8 °F 64% 30.13 in 10.0 mi South 9.2 mph - N/A   Clear
5:15 PM 26.6 °F 18.2 °F 15.8 °F 64% 30.13 in 10.0 mi South 8.1 mph - N/A   Clear
5:35 PM 26.6 °F 17.5 °F 15.8 °F 64% 30.13 in 10.0 mi South 9.2 mph - N/A   Clear
5:55 PM 24.8 °F 16.1 °F 15.8 °F 69% 30.13 in 10.0 mi South 8.1 mph - N/A   Clear
6:15 PM 24.8 °F 16.1 °F 15.8 °F 69% 30.13 in 10.0 mi South 8.1 mph - N/A   Clear
6:35 PM 24.8 °F 16.9 °F 15.8 °F 69% 30.13 in 10.0 mi South 6.9 mph - N/A   Clear
6:55 PM 24.8 °F 15.3 °F 15.8 °F 69% 30.13 in 10.0 mi South 9.2 mph - N/A   Clear
7:15 PM 24.8 °F 17.9 °F 15.8 °F 69% 30.13 in 10.0 mi SSW 5.8 mph - N/A   Clear
7:35 PM 24.8 °F 16.1 °F 15.8 °F 69% 30.13 in 10.0 mi South 8.1 mph - N/A   Clear
7:55 PM 24.8 °F 16.9 °F 15.8 °F 69% 30.13 in 10.0 mi SW 6.9 mph - N/A   Clear
8:15 PM 24.8 °F 16.9 °F 15.8 °F 69% 30.13 in 10.0 mi SW 6.9 mph - N/A   Clear
8:35 PM 24.8 °F 17.9 °F 15.8 °F 69% 30.13 in 10.0 mi SSW 5.8 mph - N/A   Clear
8:55 PM 23.0 °F 15.8 °F 15.8 °F 74% 30.14 in 10.0 mi SW 5.8 mph - N/A   Clear
9:15 PM 23.0 °F 15.8 °F 15.8 °F 74% 30.14 in 10.0 mi SSW 5.8 mph - N/A   Clear
9:35 PM 23.0 °F 14.7 °F 15.8 °F 74% 30.14 in 10.0 mi South 6.9 mph - N/A   Clear
9:55 PM 23.0 °F 15.8 °F 15.8 °F 74% 30.14 in 10.0 mi SW 5.8 mph - N/A   Clear
10:15 PM 23.0 °F 17.0 °F 15.8 °F 74% 30.14 in 10.0 mi SW 4.6 mph - N/A   Clear
10:35 PM 21.2 °F 12.6 °F 14.0 °F 74% 30.13 in 10.0 mi SSW 6.9 mph - N/A   Clear
10:55 PM 21.2 °F 16.4 °F 14.0 °F 74% 30.14 in 10.0 mi SSW 3.5 mph - N/A   Clear
11:15 PM 21.2 °F 13.6 °F 14.0 °F 74% 30.14 in 10.0 mi SSW 5.8 mph - N/A   Clear
11:35 PM 21.2 °F 11.7 °F 14.0 °F 74% 30.14 in 10.0 mi South 8.1 mph - N/A   Clear
11:55 PM 21.2 °F 12.6 °F 14.0 °F 74% 30.15 in 10.0 mi SSW 6.9 mph - N/A   Clear